EWG8NB EDDK-EGKK

Flight info

Callsign EWG8NB
Flight time 1h 0m
Altitude 32000
Route NVO2R NVO Y868 NAVAK DCT DENUT L610 TEBRA
Aircraft A319/M-SDE3FGHIRWY/LB1

Departure

Time 2026-04-24 10:57
Airport Cologne Bonn Airport (EDDK)

Arrival

Time 2026-04-24 11:57
Airport London Gatwick Airport (EGKK)
Time Latitude Longitude Altitude Speed Heading
2026-04-24 10:36 50.88223 7.11858 232 ft 0 kts 216°
2026-04-24 10:43 50.88226 7.11862 232 ft 3 kts 216°
2026-04-24 10:43 50.88248 7.11888 235 ft 4 kts 217°
2026-04-24 10:44 50.88270 7.11911 232 ft 4 kts 197°
2026-04-24 10:44 50.88287 7.11912 235 ft 2 kts 126°
2026-04-24 10:44 50.88287 7.11910 235 ft 0 kts 126°
2026-04-24 10:47 50.88285 7.11914 234 ft 2 kts 126°
2026-04-24 10:48 50.88269 7.11951 234 ft 7 kts 125°
2026-04-24 10:48 50.88228 7.12040 234 ft 12 kts 125°
2026-04-24 10:48 50.88169 7.12169 234 ft 17 kts 126°
2026-04-24 10:48 50.88094 7.12333 232 ft 20 kts 126°
2026-04-24 10:49 50.88005 7.12489 232 ft 19 kts 138°
2026-04-24 10:49 50.87918 7.12606 232 ft 14 kts 153°
2026-04-24 10:49 50.87825 7.12626 232 ft 14 kts 156°
2026-04-24 10:49 50.87749 7.12726 232 ft 14 kts 137°
2026-04-24 10:50 50.87680 7.12827 232 ft 13 kts 137°
2026-04-24 10:50 50.87612 7.12921 232 ft 13 kts 139°
2026-04-24 10:50 50.87543 7.13027 232 ft 15 kts 137°
2026-04-24 10:50 50.87459 7.13147 232 ft 18 kts 139°
2026-04-24 10:51 50.87371 7.13275 232 ft 16 kts 134°
2026-04-24 10:51 50.87290 7.13389 233 ft 15 kts 139°
2026-04-24 10:51 50.87224 7.13487 235 ft 11 kts 136°
2026-04-24 10:51 50.87170 7.13566 237 ft 11 kts 138°
2026-04-24 10:52 50.87108 7.13655 240 ft 14 kts 138°
2026-04-24 10:52 50.87029 7.13771 243 ft 17 kts 137°
2026-04-24 10:52 50.86931 7.13912 249 ft 20 kts 137°
2026-04-24 10:52 50.86831 7.14057 255 ft 21 kts 137°
2026-04-24 10:53 50.86744 7.14134 255 ft 10 kts 168°
2026-04-24 10:53 50.86694 7.14193 258 ft 8 kts 136°
2026-04-24 10:53 50.86652 7.14256 261 ft 10 kts 137°
2026-04-24 10:53 50.86571 7.14372 262 ft 22 kts 137°
2026-04-24 10:54 50.86456 7.14541 269 ft 22 kts 137°
2026-04-24 10:54 50.86345 7.14703 275 ft 21 kts 137°
2026-04-24 10:54 50.86238 7.14857 281 ft 20 kts 138°
2026-04-24 10:54 50.86136 7.15004 286 ft 20 kts 137°
2026-04-24 10:55 50.86053 7.15130 292 ft 14 kts 123°
2026-04-24 10:55 50.86056 7.15281 291 ft 15 kts 65°
2026-04-24 10:55 50.86142 7.15357 291 ft 16 kts 351°
2026-04-24 10:55 50.86271 7.15320 288 ft 22 kts 348°
2026-04-24 10:56 50.86443 7.15231 282 ft 31 kts 320°
2026-04-24 10:56 50.86726 7.14822 269 ft 87 kts 317°
2026-04-24 10:56 50.87320 7.13958 246 ft 146 kts 317°
2026-04-24 10:56 50.88086 7.12854 815 ft 148 kts 316°
2026-04-24 10:57 50.88839 7.11755 1529 ft 150 kts 317°
2026-04-24 10:57 50.89670 7.10558 1875 ft 173 kts 318°
2026-04-24 10:57 50.90534 7.09063 2180 ft 197 kts 305°
2026-04-24 10:57 50.91018 7.07031 2882 ft 201 kts 284°
2026-04-24 10:58 50.91031 7.04745 3422 ft 215 kts 263°
2026-04-24 10:58 50.90570 7.02431 3971 ft 227 kts 255°
2026-04-24 10:58 50.90032 6.99917 4274 ft 255 kts 255°
2026-04-24 10:58 50.89442 6.97152 4903 ft 271 kts 255°
2026-04-24 10:59 50.88831 6.94285 5788 ft 277 kts 255°
2026-04-24 10:59 50.88209 6.91376 6741 ft 281 kts 255°
2026-04-24 10:59 50.87586 6.88455 7631 ft 284 kts 254°
2026-04-24 10:59 50.86950 6.85475 8537 ft 288 kts 254°
2026-04-24 11:00 50.86303 6.82457 9445 ft 291 kts 253°
2026-04-24 11:00 50.85648 6.79401 10315 ft 295 kts 253°
2026-04-24 11:00 50.84966 6.76217 10669 ft 317 kts 253°
2026-04-24 11:00 50.84225 6.72758 11061 ft 334 kts 253°
2026-04-24 11:01 50.83481 6.69298 11708 ft 339 kts 253°
2026-04-24 11:01 50.82726 6.65737 12421 ft 343 kts 255°
2026-04-24 11:01 50.82315 6.62023 13125 ft 344 kts 269°
2026-04-24 11:01 50.82339 6.58231 13835 ft 346 kts 273°
2026-04-24 11:02 50.82400 6.54396 14447 ft 350 kts 272°
2026-04-24 11:02 50.82454 6.50529 15072 ft 353 kts 271°
2026-04-24 11:02 50.82502 6.46625 15706 ft 356 kts 272°
2026-04-24 11:02 50.82546 6.42704 16370 ft 357 kts 271°
2026-04-24 11:03 50.82590 6.38763 16990 ft 361 kts 271°
2026-04-24 11:03 50.82634 6.34786 17626 ft 363 kts 271°
2026-04-24 11:03 50.82676 6.30773 18219 ft 366 kts 271°
2026-04-24 11:03 50.82715 6.26732 18835 ft 368 kts 270°
2026-04-24 11:04 50.82756 6.22664 19378 ft 371 kts 270°
2026-04-24 11:04 50.82796 6.18563 19935 ft 374 kts 270°
2026-04-24 11:04 50.82835 6.14445 20482 ft 376 kts 270°
2026-04-24 11:04 50.82871 6.10299 21037 ft 378 kts 269°
2026-04-24 11:05 50.82904 6.06126 21590 ft 380 kts 269°
2026-04-24 11:05 50.82936 6.01987 22128 ft 382 kts 269°
2026-04-24 11:05 50.82927 5.97718 22680 ft 384 kts 267°
2026-04-24 11:05 50.82923 5.93479 23213 ft 387 kts 271°
2026-04-24 11:06 50.83293 5.89241 23733 ft 392 kts 281°
2026-04-24 11:06 50.84032 5.85068 24176 ft 395 kts 284°
2026-04-24 11:06 50.84807 5.80941 24594 ft 397 kts 284°
2026-04-24 11:06 50.85609 5.76748 25012 ft 399 kts 284°
2026-04-24 11:07 50.87232 5.68301 25853 ft 403 kts 284°
2026-04-24 11:07 50.88045 5.64046 26253 ft 405 kts 283°
2026-04-24 11:07 50.88859 5.59763 26667 ft 407 kts 283°
2026-04-24 11:08 50.89674 5.55460 27076 ft 409 kts 283°
2026-04-24 11:08 50.90488 5.51134 27488 ft 411 kts 283°
2026-04-24 11:08 50.91304 5.46777 27906 ft 413 kts 283°
2026-04-24 11:08 50.92122 5.42400 28330 ft 415 kts 283°
2026-04-24 11:09 50.92943 5.38002 28750 ft 417 kts 283°
2026-04-24 11:09 50.93767 5.33580 29166 ft 419 kts 283°
2026-04-24 11:09 50.94593 5.29131 29565 ft 421 kts 283°
2026-04-24 11:09 50.95420 5.24666 29966 ft 423 kts 283°
2026-04-24 11:10 50.96253 5.20171 30351 ft 426 kts 283°
2026-04-24 11:10 50.97087 5.15660 30674 ft 428 kts 282°
2026-04-24 11:10 50.97925 5.11118 30983 ft 430 kts 282°
2026-04-24 11:10 50.98768 5.06546 31294 ft 432 kts 282°
2026-04-24 11:11 50.99611 5.01961 31601 ft 434 kts 282°
2026-04-24 11:11 51.00454 4.97357 31897 ft 436 kts 282°
2026-04-24 11:11 51.01299 4.92728 32216 ft 436 kts 282°
2026-04-24 11:11 51.02136 4.88118 32318 ft 430 kts 282°
2026-04-24 11:12 51.02954 4.83623 32328 ft 416 kts 282°
2026-04-24 11:12 51.03748 4.79256 32328 ft 408 kts 281°
2026-04-24 11:12 51.05305 4.70631 32339 ft 405 kts 281°
2026-04-24 11:13 51.06844 4.62031 32328 ft 404 kts 281°
2026-04-24 11:13 51.08368 4.53484 32328 ft 404 kts 281°
2026-04-24 11:14 51.09897 4.44883 32327 ft 404 kts 281°
2026-04-24 11:14 51.11422 4.36283 32322 ft 404 kts 281°
2026-04-24 11:15 51.12933 4.27682 32317 ft 403 kts 281°
2026-04-24 11:15 51.14438 4.19086 32315 ft 403 kts 281°
2026-04-24 11:16 51.15936 4.10475 32313 ft 403 kts 281°
2026-04-24 11:16 51.17431 4.01864 32312 ft 403 kts 281°
2026-04-24 11:17 51.18922 3.93248 32307 ft 403 kts 281°
2026-04-24 11:17 51.20402 3.84625 32307 ft 403 kts 281°
2026-04-24 11:18 51.21876 3.76005 32311 ft 403 kts 281°
2026-04-24 11:18 51.23341 3.67373 32307 ft 403 kts 281°
2026-04-24 11:19 51.24671 3.58692 32306 ft 402 kts 278°
2026-04-24 11:19 51.25780 3.49945 32306 ft 402 kts 277°
2026-04-24 11:20 51.26872 3.41196 32315 ft 402 kts 278°
2026-04-24 11:20 51.27997 3.32442 32335 ft 402 kts 278°
2026-04-24 11:21 51.29133 3.23695 32350 ft 402 kts 278°
2026-04-24 11:21 51.30257 3.14960 32361 ft 401 kts 278°
2026-04-24 11:22 51.30808 3.10604 32247 ft 398 kts 278°
2026-04-24 11:22 51.31353 3.06277 31746 ft 397 kts 278°
2026-04-24 11:22 51.31897 3.01963 31284 ft 394 kts 278°
2026-04-24 11:22 51.32436 2.97683 30827 ft 392 kts 278°
2026-04-24 11:23 51.32971 2.93424 30351 ft 389 kts 277°
2026-04-24 11:23 51.33498 2.89198 29822 ft 386 kts 277°
2026-04-24 11:23 51.34015 2.85047 29345 ft 384 kts 278°
2026-04-24 11:23 51.34531 2.80871 28876 ft 380 kts 278°
2026-04-24 11:24 51.35042 2.76732 28415 ft 378 kts 278°
2026-04-24 11:24 51.35551 2.72622 27950 ft 375 kts 278°
2026-04-24 11:24 51.36059 2.68541 27504 ft 373 kts 278°
2026-04-24 11:24 51.36561 2.64480 27074 ft 371 kts 278°
2026-04-24 11:25 51.37057 2.60439 26655 ft 369 kts 277°
2026-04-24 11:25 51.37549 2.56416 26233 ft 367 kts 277°
2026-04-24 11:25 51.38035 2.52417 25811 ft 365 kts 277°
2026-04-24 11:25 51.38518 2.48438 25396 ft 363 kts 277°
2026-04-24 11:26 51.38997 2.44478 24979 ft 361 kts 277°
2026-04-24 11:26 51.39471 2.40546 24562 ft 359 kts 277°
2026-04-24 11:26 51.39944 2.36622 24158 ft 357 kts 277°
2026-04-24 11:26 51.40415 2.32722 23696 ft 356 kts 277°
2026-04-24 11:27 51.40877 2.28894 23200 ft 354 kts 277°
2026-04-24 11:27 51.41344 2.25029 22701 ft 352 kts 278°
2026-04-24 11:27 51.41814 2.21187 22206 ft 351 kts 278°
2026-04-24 11:27 51.42287 2.17359 21719 ft 349 kts 278°
2026-04-24 11:28 51.42755 2.13551 21248 ft 348 kts 278°
2026-04-24 11:28 51.43217 2.09745 20872 ft 348 kts 278°
2026-04-24 11:28 51.43675 2.05941 20497 ft 347 kts 278°
2026-04-24 11:28 51.44130 2.02148 20126 ft 346 kts 279°
2026-04-24 11:29 51.44585 1.98366 19761 ft 345 kts 278°
2026-04-24 11:29 51.45034 1.94604 19400 ft 343 kts 279°
2026-04-24 11:29 51.45477 1.90848 19044 ft 343 kts 278°
2026-04-24 11:29 51.45919 1.87096 18691 ft 343 kts 278°
2026-04-24 11:30 51.46358 1.83346 18294 ft 342 kts 278°
2026-04-24 11:30 51.46792 1.79611 17894 ft 340 kts 279°
2026-04-24 11:30 51.47220 1.75894 17498 ft 338 kts 278°
2026-04-24 11:30 51.47643 1.72197 17106 ft 336 kts 278°
2026-04-24 11:31 51.48056 1.68568 16723 ft 334 kts 279°
2026-04-24 11:31 51.48458 1.64903 16354 ft 332 kts 275°
2026-04-24 11:31 51.48506 1.61231 15979 ft 328 kts 264°
2026-04-24 11:31 51.48078 1.57660 15608 ft 325 kts 251°
2026-04-24 11:32 51.47313 1.54255 15241 ft 323 kts 249°
2026-04-24 11:32 51.46530 1.50881 14884 ft 322 kts 249°
2026-04-24 11:32 51.45750 1.47512 14523 ft 321 kts 249°
2026-04-24 11:32 51.44975 1.44163 14359 ft 320 kts 249°
2026-04-24 11:33 51.44181 1.40827 14369 ft 320 kts 244°
2026-04-24 11:33 51.43053 1.37762 14373 ft 320 kts 231°
2026-04-24 11:33 51.41518 1.35210 14368 ft 319 kts 218°
2026-04-24 11:33 51.39735 1.33097 14369 ft 319 kts 215°
2026-04-24 11:34 51.37946 1.30993 14369 ft 318 kts 216°
2026-04-24 11:34 51.36765 1.29597 14288 ft 319 kts 216°
2026-04-24 11:34 51.34409 1.26806 14054 ft 317 kts 216°
2026-04-24 11:34 51.32636 1.24706 13870 ft 318 kts 216°
2026-04-24 11:35 51.30854 1.22595 13685 ft 319 kts 215°
2026-04-24 11:35 51.29071 1.20487 13498 ft 319 kts 215°
2026-04-24 11:35 51.27284 1.18379 13315 ft 319 kts 214°
2026-04-24 11:35 51.25503 1.16284 13132 ft 318 kts 215°
2026-04-24 11:36 51.24324 1.14898 13009 ft 318 kts 214°
2026-04-24 11:36 51.22544 1.12805 12827 ft 317 kts 215°
2026-04-24 11:36 51.20765 1.10717 12650 ft 317 kts 214°
2026-04-24 11:36 51.18991 1.08635 12466 ft 317 kts 215°
2026-04-24 11:37 51.17221 1.06556 12288 ft 316 kts 215°
2026-04-24 11:37 51.15453 1.04487 12110 ft 315 kts 215°
2026-04-24 11:37 51.13684 1.02419 11934 ft 316 kts 214°
2026-04-24 11:37 51.11915 1.00358 11759 ft 315 kts 215°
2026-04-24 11:38 51.10149 0.98301 11583 ft 314 kts 214°
2026-04-24 11:38 51.08391 0.96250 11410 ft 314 kts 214°
2026-04-24 11:38 51.06674 0.94104 11236 ft 315 kts 220°
2026-04-24 11:38 51.05281 0.91416 11063 ft 317 kts 235°
2026-04-24 11:39 51.04276 0.88302 10893 ft 317 kts 243°
2026-04-24 11:39 51.03346 0.85172 10724 ft 308 kts 243°
2026-04-24 11:39 51.02441 0.82126 10553 ft 304 kts 243°
2026-04-24 11:39 51.01539 0.79101 10387 ft 302 kts 242°
2026-04-24 11:40 51.00634 0.76080 10221 ft 303 kts 243°
2026-04-24 11:40 50.99730 0.73069 10023 ft 301 kts 242°
2026-04-24 11:40 50.98831 0.70077 9844 ft 299 kts 243°
2026-04-24 11:40 50.97938 0.67099 9662 ft 299 kts 243°
2026-04-24 11:41 50.97054 0.64156 9476 ft 299 kts 243°
2026-04-24 11:41 50.96147 0.61136 9292 ft 299 kts 243°
2026-04-24 11:41 50.95263 0.58204 9110 ft 298 kts 243°
2026-04-24 11:41 50.94371 0.55257 8928 ft 295 kts 243°
2026-04-24 11:42 50.93480 0.52320 8749 ft 296 kts 243°
2026-04-24 11:42 50.92592 0.49389 8567 ft 295 kts 242°
2026-04-24 11:42 50.91875 0.46331 8390 ft 297 kts 256°
2026-04-24 11:42 50.91690 0.43092 8216 ft 295 kts 272°
2026-04-24 11:43 50.92050 0.39893 8040 ft 296 kts 287°
2026-04-24 11:43 50.92639 0.36775 7867 ft 294 kts 286°
2026-04-24 11:43 50.93210 0.33684 7691 ft 290 kts 286°
2026-04-24 11:43 50.93761 0.30656 7516 ft 282 kts 285°
2026-04-24 11:44 50.94295 0.27708 7384 ft 274 kts 286°
2026-04-24 11:44 50.94688 0.24823 7339 ft 262 kts 276°
2026-04-24 11:44 50.94923 0.21986 7143 ft 259 kts 277°
2026-04-24 11:44 50.95170 0.19163 6932 ft 257 kts 277°
2026-04-24 11:45 50.95417 0.16367 6729 ft 255 kts 277°
2026-04-24 11:45 50.95665 0.13569 6524 ft 256 kts 277°
2026-04-24 11:45 50.95912 0.10771 6313 ft 257 kts 277°
2026-04-24 11:45 50.96161 0.07961 6107 ft 258 kts 278°
2026-04-24 11:46 50.96409 0.05152 5903 ft 256 kts 278°
2026-04-24 11:46 50.96655 0.02371 5702 ft 254 kts 278°
2026-04-24 11:46 50.96897 -0.00391 5479 ft 253 kts 277°
2026-04-24 11:46 50.97132 -0.03117 5232 ft 253 kts 277°
2026-04-24 11:47 50.97369 -0.05870 4972 ft 251 kts 277°
2026-04-24 11:47 50.97602 -0.08608 4708 ft 250 kts 277°
2026-04-24 11:47 50.97831 -0.11320 4445 ft 247 kts 278°
2026-04-24 11:47 50.98057 -0.14012 4185 ft 246 kts 277°
2026-04-24 11:48 50.98283 -0.16695 4002 ft 243 kts 278°
2026-04-24 11:48 50.98530 -0.19375 4010 ft 247 kts 283°
2026-04-24 11:48 50.98957 -0.22034 3840 ft 248 kts 284°
2026-04-24 11:48 50.99382 -0.24669 3618 ft 245 kts 285°
2026-04-24 11:49 50.99801 -0.27278 3420 ft 242 kts 285°
2026-04-24 11:49 51.00219 -0.29884 3220 ft 246 kts 284°
2026-04-24 11:49 51.00638 -0.32514 3033 ft 244 kts 284°
2026-04-24 11:49 51.01050 -0.35109 3001 ft 241 kts 284°
2026-04-24 11:50 51.01461 -0.37687 3011 ft 241 kts 285°
2026-04-24 11:50 51.01875 -0.40276 2998 ft 242 kts 285°
2026-04-24 11:50 51.02291 -0.42880 2997 ft 244 kts 284°
2026-04-24 11:50 51.02711 -0.45504 2998 ft 245 kts 284°
2026-04-24 11:51 51.03122 -0.48083 3004 ft 242 kts 284°
2026-04-24 11:51 51.03543 -0.50715 3003 ft 243 kts 284°
2026-04-24 11:51 51.04171 -0.53148 3000 ft 239 kts 311°
2026-04-24 11:51 51.05511 -0.54494 2996 ft 232 kts 352°
2026-04-24 11:52 51.07161 -0.54541 2998 ft 235 kts 15°
2026-04-24 11:52 51.08613 -0.53670 3006 ft 215 kts 35°
2026-04-24 11:52 51.09710 -0.52163 3003 ft 205 kts 55°
2026-04-24 11:52 51.10412 -0.50240 3005 ft 200 kts 72°
2026-04-24 11:53 51.10753 -0.48105 2998 ft 196 kts 80°
2026-04-24 11:53 51.11044 -0.46052 2998 ft 186 kts 80°
2026-04-24 11:53 51.11325 -0.44058 3023 ft 183 kts 79°
2026-04-24 11:53 51.11604 -0.42069 2902 ft 184 kts 80°
2026-04-24 11:54 51.11880 -0.40100 2690 ft 180 kts 79°
2026-04-24 11:54 51.12151 -0.38170 2505 ft 178 kts 79°
2026-04-24 11:54 51.12424 -0.36185 2269 ft 186 kts 81°
2026-04-24 11:54 51.12691 -0.34204 2010 ft 181 kts 79°
2026-04-24 11:55 51.12967 -0.32293 1715 ft 170 kts 78°
2026-04-24 11:55 51.13218 -0.30525 1491 ft 157 kts 77°
2026-04-24 11:55 51.13434 -0.28949 1307 ft 136 kts 78°
2026-04-24 11:55 51.13629 -0.27579 1090 ft 120 kts 78°
2026-04-24 11:56 51.13801 -0.26335 940 ft 112 kts 79°
2026-04-24 11:56 51.13972 -0.25090 766 ft 120 kts 77°
2026-04-24 11:56 51.14157 -0.23785 633 ft 123 kts 76°
2026-04-24 11:56 51.14342 -0.22450 470 ft 123 kts 77°
2026-04-24 11:57 51.14528 -0.21116 308 ft 122 kts 76°
2026-04-24 11:57 51.14698 -0.19878 208 ft 102 kts 77°
2026-04-24 11:57 51.14814 -0.19048 214 ft 53 kts 78°
2026-04-24 11:57 51.14894 -0.18609 213 ft 32 kts 54°
2026-04-24 11:58 51.14996 -0.18402 205 ft 13 kts 53°
2026-04-24 11:58 51.15045 -0.18303 211 ft 0 kts 51°
2026-04-24 11:59 51.15055 -0.18284 208 ft 5 kts 49°
2026-04-24 12:00 51.15089 -0.18225 210 ft 9 kts 46°
2026-04-24 12:00 51.15133 -0.18146 209 ft 10 kts 73°
2026-04-24 12:00 51.15188 -0.18080 205 ft 13 kts 351°
2026-04-24 12:00 51.15286 -0.18113 205 ft 16 kts 347°
2026-04-24 12:01 51.15403 -0.18152 205 ft 15 kts 347°
2026-04-24 12:01 51.15461 -0.18177 205 ft 9 kts 335°
2026-04-24 12:01 51.15531 -0.18208 215 ft 13 kts 349°
2026-04-24 12:01 51.15611 -0.18231 211 ft 11 kts 350°
2026-04-24 12:02 51.15663 -0.18214 214 ft 8 kts 41°
2026-04-24 12:02 51.15722 -0.18170 205 ft 11 kts 359°
2026-04-24 12:02 51.15762 -0.18102 206 ft 7 kts 85°
2026-04-24 12:02 51.15720 -0.18039 206 ft 11 kts 156°
2026-04-24 12:03 51.15705 -0.17921 209 ft 14 kts 78°
2026-04-24 12:03 51.15727 -0.17760 205 ft 15 kts 77°
2026-04-24 12:03 51.15750 -0.17598 210 ft 15 kts 78°
2026-04-24 12:03 51.15770 -0.17454 207 ft 9 kts 76°
2026-04-24 12:04 51.15818 -0.17423 205 ft 8 kts 352°
2026-04-24 12:04 51.15852 -0.17435 213 ft 2 kts 347°
2026-04-24 12:04 51.15857 -0.17436 211 ft 0 kts 348°